Flag for Colombia Weather past 2 weeks in San Juan de Pasto, Colombia

Now
64 °F

Partly sunny.


Feels Like: 64 °F
Forecast: N/A
Wind: 21 mph from South

Location: Latacunga Airport

Current Time: Jan 25, 2015 at 3:34:48 PM

Latest Report: Jan 25, 2015 at 3:00 PM


Visibility: N/A

Pressure: 30.27 "Hg

Humidity: 60%

Dew point: 50 °F

Location of San Juan de PastoLocation

Historic Weather in San Juan de Pasto — Graph

°F

San Juan de Pasto temperature yesterday

Maximum temperature yesterday: 66 °F (at 3:00 PM)
Minimum temperature yesterday: 52 °F (at 12:00 AM)
Average temperature yesterday: 57 °F

Past Weeks' High & Low Weather Summary

 TemperatureHumidityPressure
High73 °F (Jan 16, 3:00 PM)100% (Jan 11, 4:00 AM)30.51 "Hg (Jan 11, 4:00 AM)
Low46 °F (Jan 14, 6:00 AM)47% (Jan 16, 3:00 PM)30.27 "Hg (Jan 14, 4:00 PM)
Average56 °F85%30.41 "Hg
* Reported Jan 10 2:00 PM — Jan 25 2:00 PM, San Juan de Pasto, Weather by CustomWeather, © 2014

Note: Actual official high and low records may vary slightly from our data, if they occured in-between our weather recording intervals... More about our weather records

Advertising

San Juan de Pasto weather history for previous 24 hours

 ConditionsComfort  
Time TempWeatherWind HumidityBarometerVisibility
2:00 PM
Jan 25
63 °FBroken clouds.21 mph68%30.30 "HgN/A
1:00 PM64 °FPartly sunny.17 mph60%30.36 "HgN/A
12:00 PM61 °FPartly sunny.17 mph68%30.39 "HgN/A
11:00 AM59 °FPartly sunny.14 mph72%30.42 "HgN/A
10:00 AM57 °FPartly sunny.12 mph77%30.42 "HgN/A
8:00 AM52 °FMore clouds than sun.6 mph94%30.39 "HgN/A
7:00 AM50 °FOvercast.No wind94%30.39 "HgN/A
6:00 AM50 °FPartly cloudy.2 mph94%30.36 "HgN/A
5:00 AM50 °FPassing clouds.2 mph94%30.36 "HgN/A
4:00 AM50 °FPartly cloudy.2 mph100%30.36 "HgN/A
3:00 AM50 °FPartly cloudy.2 mph100%30.36 "HgN/A
2:00 AM52 °FPassing clouds.2 mph94%30.39 "HgN/A
1:00 AM52 °FPassing clouds.2 mph94%30.39 "HgN/A
12:00 AM52 °FPartly cloudy.2 mph94%30.45 "HgN/A
11:00 PM
Jan 24
54 °FPartly cloudy.2 mph94%30.45 "HgN/A
10:00 PM54 °FMostly cloudy.1 mph88%30.42 "HgN/A
9:00 PM54 °FPassing clouds.3 mph94%30.42 "HgN/A
8:00 PM55 °FLight rain. Partly cloudy.5 mph88%30.42 "Hg5 mi
7:00 PM57 °FScattered showers. Partly cloudy.7 mph82%30.36 "HgN/A
6:00 PM59 °FBroken clouds.8 mph77%30.33 "HgN/A
5:00 PM61 °FThunderstorms. Broken clouds.8 mph72%30.33 "HgN/A
4:00 PM66 °FBroken clouds.12 mph64%30.33 "HgN/A
3:00 PM66 °FBroken clouds.13 mph60%30.33 "HgN/A
Weather by CustomWeather, © 2014

See weather overviewHow to use our weather pages